Location: ????????
(37.9452°N, 23.1472°E)
Time: 20:06:12
(UTC+00:00)

SJ 16-02 - Pass Details

Date: 18 April 2024
Orbit: 595 x 605 km, 75.0° (Epoch: 27 May)

Event Time Altitude Azimuth Distance (km) Brightness Sun altitude
Rises 18:04:20 0° 336° (NNW) 2,844 5.6 -11.6°
Reaches altitude 10° 18:06:38 10° 330° (NNW) 1,937 4.8 -12.0°
Maximum altitude 18:10:44 44° 258° (WSW) 826 2.4 -12.7°
Drops below altitude 10° 18:14:48 10° 186° (S) 1,921 3.7 -13.4°
Sets 18:17:05 0° 180° (S) 2,819 4.5 -13.8°
